Oklahoma City, OK

7:06 AM CDT on August 20, 2017 (GMT -0500)
Will Rogers World

Weather History for KOKC - October, 2013

Change the Weather History Date:

Thursday, October 31, 2013

  Actual Average Record
Temperature  
Mean Temperature 58 °F 57 °F  
Max Temperature 69 °F 68 °F 86 °F (1938)
Min Temperature 47 °F 46 °F 16 °F (1993)
Degree Days  
Heating Degree Days 7 8  
Month to date heating degree days 161 145  
Since 1 July heating degree days 164 164  
Cooling Degree Days 0 1  
Month to date cooling degree days 84 67  
Year to date cooling degree days 2069 2092  
Growing Degree Days 8 (Base 50)    
Moisture  
Dew Point 51 °F    
Average Humidity 62    
Maximum Humidity 93    
Minimum Humidity 31    
Precipitation  
Precipitation 0.23 in 0.11 in 1.82 in (1972)
Month to date precipitation 3.42 3.71  
Year to date precipitation 50.56 32.66  
Snow  
Snow 0.00 in 0.00 in T in (1991)
Month to date snowfall 0.0 T  
Since 1 July snowfall 0.0 T  
Snow Depth -    
Sea Level Pressure  
Sea Level Pressure 29.69 in    
Wind  
Wind Speed 14 mph (WSW)    
Max Wind Speed 30 mph    
Max Gust Speed 36 mph    
Visibility 10 miles    
Events Rain , Thunderstorm    
T = Trace of Precipitation, MM = Missing Value Source: NWS Daily Summary

Daily Weather History Graph

Daily Weather History Graph

Search for Another Location

Airport or City:

Trip Planner

Search our weather history database for the weather conditions in past years. The results will help you decide how hot, cold, wet, or windy it might be!

Date:

Astronomy

Oct. 31, 2013 Rise Set
Actual Time 7:51 AM CDT 6:36 PM CDT
Civil Twilight 7:25 AM CDT 7:02 PM CDT
Nautical Twilight 6:54 AM CDT 7:32 PM CDT
Astronomical Twilight 6:25 AM CDT 8:02 PM CDT
Moon 4:48 AM CDT (10/31) 4:50 PM CDT (10/31)
Length of Visible Light 11h 37m
Length of Day
10h 44m
Waning Crescent, 10% of the Moon is Illuminated
Oct 31
Waning Crescent
Nov 3
New
Nov 9
First Quarter
Nov 17
Full
Nov 25
Last Quarter

Hourly Weather History & Observations

Time (CDT) Temp. Dew Point Humidity Pressure Visibility Wind Dir Wind Speed Gust Speed Precip Events Conditions
12:52 AM 66.0 °F 63.0 °F 90% 29.68 in 10.0 mi South 16.1 mph - 0.01 in Rain Light Rain
1:31 AM 64.4 °F 62.6 °F 94% 29.70 in 10.0 mi South 12.7 mph - 0.00 in Rain Light Rain
1:52 AM 64.9 °F 63.0 °F 93% 29.69 in 7.0 mi SSW 13.8 mph - 0.01 in Rain , Thunderstorm Light Thunderstorms and Rain
2:00 AM 64.4 °F 62.6 °F 94% 29.73 in 2.5 mi SSW 13.8 mph - 0.03 in Rain , Thunderstorm Thunderstorms and Rain
2:13 AM 64.4 °F 62.6 °F 94% 29.73 in 4.0 mi SW 15.0 mph - 0.15 in Rain , Thunderstorm Light Thunderstorms and Rain
2:28 AM 64.4 °F 62.6 °F 94% 29.72 in 6.0 mi SW 10.4 mph - 0.20 in Rain , Thunderstorm Light Thunderstorms and Rain
2:45 AM 64.4 °F 60.8 °F 88% 29.71 in 10.0 mi SSW 10.4 mph - 0.21 in Rain Light Rain
2:52 AM 63.0 °F 61.0 °F 93% 29.65 in 9.0 mi SSE 5.8 mph - 0.22 in Rain Light Rain
3:52 AM 63.0 °F 61.0 °F 93% 29.59 in 10.0 mi SSE 13.8 mph - 0.00 in   Overcast
4:06 AM 62.6 °F 60.8 °F 94% 29.65 in 10.0 mi South 10.4 mph - N/A   Overcast
4:52 AM 64.0 °F 62.1 °F 93% 29.61 in 10.0 mi South 11.5 mph - 0.00 in   Overcast
5:18 AM 64.4 °F 60.8 °F 88% 29.64 in 10.0 mi South 11.5 mph - N/A   Overcast
5:52 AM 64.0 °F 62.1 °F 93% 29.58 in 10.0 mi South 11.5 mph - N/A   Overcast
6:03 AM 64.4 °F 62.6 °F 94% 29.61 in 10.0 mi SSW 12.7 mph - N/A   Overcast
6:52 AM 64.0 °F 61.0 °F 90% 29.58 in 10.0 mi SSW 13.8 mph - N/A   Mostly Cloudy
7:52 AM 62.1 °F 55.0 °F 78% 29.58 in 10.0 mi SW 18.4 mph 25.3 mph N/A   Partly Cloudy
8:52 AM 57.0 °F 43.0 °F 59% 29.60 in 10.0 mi WSW 13.8 mph - N/A   Partly Cloudy
9:52 AM 60.1 °F 42.1 °F 51% 29.64 in 10.0 mi West 21.9 mph 29.9 mph N/A   Mostly Cloudy
10:35 AM 60.8 °F 48.2 °F 63% 29.68 in 10.0 mi WNW 24.2 mph 32.2 mph N/A   Mostly Cloudy
10:52 AM 61.0 °F 48.9 °F 64% 29.67 in 10.0 mi WNW 23.0 mph 31.1 mph N/A   Mostly Cloudy
11:04 AM 57.2 °F 50.0 °F 77% 29.71 in 10.0 mi WNW 20.7 mph 27.6 mph N/A   Overcast
11:52 AM 55.0 °F 46.0 °F 72% 29.73 in 10.0 mi NW 27.6 mph 33.4 mph 0.00 in   Overcast
12:10 PM 59.0 °F 46.4 °F 63% 29.74 in 10.0 mi NW 20.7 mph 29.9 mph N/A   Scattered Clouds
12:52 PM 62.1 °F 45.0 °F 53% 29.73 in 10.0 mi NW 24.2 mph 33.4 mph N/A   Scattered Clouds
1:52 PM 64.0 °F 44.1 °F 48% 29.72 in 10.0 mi NW 19.6 mph 26.5 mph N/A   Partly Cloudy
2:52 PM 66.9 °F 42.1 °F 40% 29.72 in 10.0 mi NW 24.2 mph 28.8 mph N/A   Partly Cloudy
3:52 PM 68.0 °F 37.9 °F 33% 29.71 in 10.0 mi NW 23.0 mph 32.2 mph N/A   Clear
4:52 PM 69.1 °F 37.9 °F 32% 29.72 in 10.0 mi NW 19.6 mph 26.5 mph N/A   Clear
5:52 PM 66.9 °F 37.0 °F 33% 29.73 in 10.0 mi NW 12.7 mph - N/A   Clear
6:52 PM 59.0 °F 39.9 °F 49% 29.75 in 10.0 mi West 5.8 mph - N/A   Clear
7:52 PM 59.0 °F 41.0 °F 51% 29.77 in 10.0 mi NW 8.1 mph - N/A   Clear
8:52 PM 55.9 °F 39.9 °F 55% 29.79 in 10.0 mi West 3.5 mph - N/A   Clear
9:52 PM 46.9 °F 41.0 °F 80% 29.81 in 10.0 mi SSW 5.8 mph - N/A   Clear
10:52 PM 48.0 °F 41.0 °F 77% 29.83 in 10.0 mi SSW 4.6 mph - N/A   Clear
11:52 PM 46.9 °F 39.0 °F 74% 29.84 in 10.0 mi South 3.5 mph - N/A   Clear